TimeEST,TemperatureF,Dew PointF,Humidity,Sea Level PressureIn,VisibilityMPH,Wind Direction,Wind SpeedMPH,Gust SpeedMPH,PrecipitationIn,Events,Conditions,WindDirDegrees,DateUTC
12:54 AM,48.9,46.9,93,30.19,9.0,North,16.1,23.0,0.00,Rain,Light Rain,360,2013-01-15 05:54:00
1:54 AM,46.0,44.1,93,30.20,7.0,NNE,11.5,-,0.04,Rain,Light Rain,20,2013-01-15 06:54:00
2:23 AM,46.4,44.6,93,30.19,8.0,NNE,11.5,19.6,0.00,Rain,Light Rain,30,2013-01-15 07:23:00
2:54 AM,46.0,44.1,93,30.20,3.0,NNE,9.2,-,0.00,Rain,Light Rain,30,2013-01-15 07:54:00
3:09 AM,46.4,44.6,93,30.20,3.0,NNE,6.9,-,0.01,Rain,Light Rain,20,2013-01-15 08:09:00
3:15 AM,46.4,44.6,93,30.21,2.5,NNE,4.6,-,0.02,Rain,Light Rain,20,2013-01-15 08:15:00
3:41 AM,44.6,44.6,100,30.19,3.0,NE,10.4,-,0.04,Rain,Light Rain,50,2013-01-15 08:41:00
3:54 AM,45.0,44.1,97,30.16,5.0,ENE,10.4,-,0.04,Rain,Light Rain,70,2013-01-15 08:54:00
4:01 AM,44.6,42.8,93,30.17,8.0,ENE,10.4,18.4,0.00,,Overcast,60,2013-01-15 09:01:00
4:11 AM,44.6,42.8,93,30.17,8.0,NE,8.1,-,0.00,Rain,Light Rain,50,2013-01-15 09:11:00
4:24 AM,44.6,42.8,93,30.16,4.0,ENE,10.4,-,0.00,Rain,Light Rain,60,2013-01-15 09:24:00
4:54 AM,44.1,43.0,96,30.15,4.0,ENE,6.9,-,0.01,Rain,Light Rain,60,2013-01-15 09:54:00
5:54 AM,44.1,42.1,93,30.14,8.0,ENE,9.2,-,0.01,,Overcast,60,2013-01-15 10:54:00
6:07 AM,44.6,42.8,93,30.15,8.0,ENE,8.1,-,N/A,,Overcast,60,2013-01-15 11:07:00
6:25 AM,44.6,42.8,93,30.15,10.0,NE,8.1,-,N/A,,Overcast,50,2013-01-15 11:25:00
6:54 AM,44.1,42.1,93,30.16,10.0,ENE,5.8,-,N/A,,Overcast,60,2013-01-15 11:54:00
7:41 AM,44.6,42.8,93,30.18,4.0,ENE,4.6,-,0.01,Rain,Light Rain,60,2013-01-15 12:41:00
7:54 AM,44.1,43.0,96,30.19,3.0,NNE,4.6,-,0.02,Rain,Light Rain,30,2013-01-15 12:54:00
8:30 AM,44.6,42.8,93,30.21,7.0,NE,4.6,-,0.02,,Overcast,40,2013-01-15 13:30:00
8:54 AM,45.0,43.0,93,30.22,10.0,NNE,5.8,-,0.02,,Overcast,30,2013-01-15 13:54:00
9:54 AM,45.0,43.0,93,30.23,10.0,NNE,6.9,-,N/A,,Overcast,30,2013-01-15 14:54:00
10:17 AM,44.6,42.8,93,30.22,6.0,NE,10.4,-,N/A,,Overcast,40,2013-01-15 15:17:00
10:54 AM,45.0,43.0,93,30.23,8.0,NNE,6.9,-,N/A,,Overcast,30,2013-01-15 15:54:00
11:54 AM,44.1,42.1,93,30.21,6.0,NNE,9.2,-,N/A,,Overcast,20,2013-01-15 16:54:00
12:26 PM,42.8,41.0,93,30.20,2.0,NNE,8.1,-,N/A,,Overcast,20,2013-01-15 17:26:00
12:35 PM,42.8,41.0,93,30.20,1.8,North,9.2,-,N/A,,Overcast,360,2013-01-15 17:35:00
12:54 PM,43.0,41.0,93,30.19,1.8,NNE,11.5,-,N/A,,Overcast,30,2013-01-15 17:54:00
1:02 PM,42.8,41.0,93,30.18,2.0,NNE,10.4,-,N/A,,Overcast,30,2013-01-15 18:02:00
1:32 PM,42.8,41.0,93,30.17,4.0,NE,5.8,-,N/A,,Overcast,50,2013-01-15 18:32:00
1:54 PM,42.1,41.0,96,30.17,3.0,North,9.2,-,N/A,,Overcast,10,2013-01-15 18:54:00
2:09 PM,42.8,41.0,93,30.16,2.5,NNE,8.1,-,0.00,Rain,Light Rain,30,2013-01-15 19:09:00
2:23 PM,42.8,41.0,93,30.16,3.0,NE,8.1,-,0.00,,Overcast,40,2013-01-15 19:23:00
2:54 PM,42.1,39.9,92,30.17,2.5,NNE,9.2,-,0.00,,Overcast,20,2013-01-15 19:54:00
3:28 PM,42.8,41.0,93,30.17,1.8,North,6.9,-,N/A,,Overcast,10,2013-01-15 20:28:00
3:54 PM,42.1,41.0,96,30.17,1.5,NNE,5.8,-,N/A,,Overcast,20,2013-01-15 20:54:00
4:39 PM,42.8,39.2,87,30.16,2.0,NE,8.1,-,N/A,,Overcast,40,2013-01-15 21:39:00
4:54 PM,42.1,41.0,96,30.17,2.0,NE,6.9,-,N/A,,Overcast,40,2013-01-15 21:54:00
5:04 PM,42.8,41.0,93,30.16,1.8,NNE,5.8,-,N/A,,Overcast,30,2013-01-15 22:04:00
5:25 PM,42.8,41.0,93,30.16,2.5,NE,5.8,-,0.00,Rain,Light Rain,40,2013-01-15 22:25:00
5:32 PM,42.8,41.0,93,30.16,3.0,NNE,5.8,-,0.00,,Overcast,30,2013-01-15 22:32:00
5:54 PM,41.0,41.0,100,30.16,3.0,NNE,6.9,-,0.00,,Overcast,30,2013-01-15 22:54:00
6:09 PM,41.0,39.2,93,30.16,2.5,NE,8.1,-,N/A,,Overcast,40,2013-01-15 23:09:00
6:54 PM,41.0,41.0,100,30.17,2.0,NE,6.9,-,N/A,,Overcast,40,2013-01-15 23:54:00
7:20 PM,41.0,39.2,93,30.15,1.8,NE,5.8,-,N/A,,Overcast,40,2013-01-16 00:20:00
7:54 PM,41.0,41.0,100,30.14,1.5,NE,4.6,-,N/A,,Overcast,50,2013-01-16 00:54:00
8:54 PM,42.1,41.0,96,30.14,1.2,NNE,5.8,-,N/A,,Overcast,20,2013-01-16 01:54:00
9:54 PM,42.1,41.0,96,30.10,1.8,ENE,3.5,-,0.01,,Overcast,60,2013-01-16 02:54:00
10:40 PM,42.8,41.0,93,30.09,2.0,NNE,3.5,-,N/A,,Overcast,20,2013-01-16 03:40:00
10:51 PM,42.8,41.0,93,30.08,1.8,NNE,3.5,-,N/A,,Overcast,20,2013-01-16 03:51:00
10:54 PM,42.1,41.0,96,30.09,1.8,North,4.6,-,N/A,,Overcast,350,2013-01-16 03:54:00
11:43 PM,42.8,41.0,93,30.08,2.0,NE,3.5,-,N/A,,Overcast,40,2013-01-16 04:43:00
11:54 PM,42.1,41.0,96,30.09,2.5,North,3.5,-,N/A,,Overcast,10,2013-01-16 04:54:00